| time (UTC) | temp F | wind direction | speed MPH | gust MPH | rain 1hr in | rain 24hr in | rain mn in | humidity % | barometer mb |
| 20260902191305 | 72 | 4 | 0.0 | 2.0 | 0.00 | 0.00 | 0.00 | 41 | 1008.5 |
| 20260902190804 | 71 | 299 | 1.0 | 2.0 | 0.00 | 0.00 | 0.00 | 41 | 1008.5 |
| 20260902190306 | 71 | 339 | 1.0 | 3.0 | 0.00 | 0.00 | 0.00 | 41 | 1008.6 |
| 20260902185805 | 71 | 338 | 2.0 | 5.0 | 0.00 | 0.00 | 0.00 | 39 | 1008.6 |
| 20260902185307 | 71 | 36 | 1.0 | 2.0 | 0.00 | 0.00 | 0.00 | 42 | 1008.7 |
| 20260902184805 | 70 | 37 | 0.0 | 2.0 | 0.00 | 0.00 | 0.00 | 42 | 1008.7 |
| 20260902184306 | 70 | 37 | 1.0 | 3.0 | 0.00 | 0.00 | 0.00 | 41 | 1008.7 |
| 20260902183305 | 70 | 71 | 1.0 | 3.0 | 0.00 | 0.00 | 0.00 | 42 | 1008.9 |
| 20260902182805 | 69 | 80 | 1.0 | 3.0 | 0.00 | 0.00 | 0.00 | 43 | 1008.7 |
| 20260902182306 | 68 | 54 | 1.0 | 2.0 | 0.00 | 0.00 | 0.00 | 44 | 1008.7 |
| 20260902181304 | 67 | 37 | 0.0 | 2.0 | 0.00 | 0.00 | 0.00 | 45 | 1009.2 |
| 20260902180805 | 67 | 38 | 1.0 | 2.0 | 0.00 | 0.00 | 0.00 | 46 | 1009.1 |
| 20260902180306 | 67 | 43 | 0.0 | 2.0 | 0.00 | 0.00 | 0.00 | 47 | 1009.1 |
| 20260902175805 | 67 | 275 | 1.0 | 2.0 | 0.00 | 0.00 | 0.00 | 46 | 1009.5 |
| 20260902175307 | 67 | 15 | 0.0 | 2.0 | 0.00 | 0.00 | 0.00 | 47 | 1009.4 |
| 20260902174805 | 67 | 349 | 2.0 | 5.0 | 0.00 | 0.00 | 0.00 | 46 | 1009.4 |
| 20260902173805 | 67 | 269 | 1.0 | 5.0 | 0.00 | 0.00 | 0.00 | 46 | 1009.3 |
| 20260902173305 | 67 | 260 | 2.0 | 5.0 | 0.00 | 0.00 | 0.00 | 44 | 1009.3 |
| 20260902172805 | 67 | 262 | 0.0 | 1.0 | 0.00 | 0.00 | 0.00 | 44 | 1009.1 |
| 20260902172308 | 67 | 262 | 0.0 | 1.0 | 0.00 | 0.00 | 0.00 | 46 | 1009.2 |
| 20260902171805 | 67 | 260 | 0.0 | 1.0 | 0.00 | 0.00 | 0.00 | 45 | 1008.8 |
| 20260902171305 | 67 | 258 | 1.0 | 2.0 | 0.00 | 0.00 | 0.00 | 44 | 1008.8 |
| 20260902170305 | 68 | 258 | 2.0 | 3.0 | 0.00 | 0.00 | 0.00 | 43 | 1008.7 |
| 20260902165804 | 68 | 250 | 1.0 | 1.0 | 0.00 | 0.00 | 0.00 | 43 | 1008.6 |
| 20260902165308 | 68 | 250 | 0.0 | 1.0 | 0.00 | 0.00 | 0.00 | 43 | 1008.6 |
| 20260902164806 | 68 | 250 | 1.0 | 2.0 | 0.00 | 0.00 | 0.00 | 43 | 1008.5 |
| 20260902164305 | 68 | 250 | 0.0 | 0.0 | 0.00 | 0.00 | 0.00 | 43 | 1008.4 |
| 20260902163805 | 68 | 250 | 0.0 | 0.0 | 0.00 | 0.00 | 0.00 | 43 | 1008.3 |
| 20260902163305 | 68 | 250 | 0.0 | 1.0 | 0.00 | 0.00 | 0.00 | 44 | 1008.3 |
| 20260902162806 | 68 | 250 | 1.0 | 2.0 | 0.00 | 0.00 | 0.00 | 43 | 1008.5 |
| 20260902162307 | 68 | 247 | 2.0 | 3.0 | 0.00 | 0.00 | 0.00 | 43 | 1008.6 |
| 20260902161305 | 67 | 182 | 1.0 | 2.0 | 0.00 | 0.00 | 0.00 | 44 | 1008.5 |
| 20260902160305 | 67 | 274 | 0.0 | 2.0 | 0.00 | 0.00 | 0.00 | 43 | 1007.9 |
| 20260902155805 | 67 | 340 | 1.0 | 2.0 | 0.00 | 0.00 | 0.00 | 44 | 1007.8 |
| 20260902154806 | 66 | 336 | 1.0 | 2.0 | 0.00 | 0.00 | 0.00 | 44 | 1008.1 |
| 20260902153806 | 64 | 262 | 0.0 | 3.0 | 0.00 | 0.00 | 0.00 | 48 | 1007.9 |
| 20260902153305 | 64 | 352 | 2.0 | 5.0 | 0.00 | 0.00 | 0.00 | 48 | 1007.8 |
| 20260902152806 | 63 | 254 | 2.0 | 5.0 | 0.00 | 0.00 | 0.00 | 51 | 1008.2 |
| 20260902152307 | 63 | 31 | 1.0 | 5.0 | 0.00 | 0.00 | 0.00 | 52 | 1008.3 |
| 20260902151805 | 62 | 2 | 1.0 | 5.0 | 0.00 | 0.00 | 0.00 | 53 | 1008.9 |
| 20260902151305 | 62 | 326 | 1.0 | 3.0 | 0.00 | 0.00 | 0.00 | 56 | 1008.5 |
| 20260902150806 | 61 | 316 | 1.0 | 2.0 | 0.00 | 0.00 | 0.00 | 57 | 1008.8 |
| 20260902150304 | 61 | 262 | 0.0 | 1.0 | 0.00 | 0.00 | 0.00 | 60 | 1008.7 |
| 20260902145805 | 61 | 259 | 0.0 | 0.0 | 0.00 | 0.00 | 0.00 | 58 | 1009.1 |
| 20260902144806 | 61 | 259 | 0.0 | 0.0 | 0.00 | 0.00 | 0.00 | 57 | 1009.0 |
| 20260902144305 | 60 | 259 | 0.0 | 0.0 | 0.00 | 0.00 | 0.00 | 58 | 1008.8 |
| 20260902143805 | 60 | 259 | 0.0 | 0.0 | 0.00 | 0.00 | 0.00 | 59 | 1008.9 |
| 20260902143305 | 60 | 259 | 0.0 | 0.0 | 0.00 | 0.00 | 0.00 | 60 | 1008.9 |
| 20260902142807 | 60 | 259 | 0.0 | 0.0 | 0.00 | 0.00 | 0.00 | 61 | 1008.7 |
| 20260902142306 | 60 | 259 | 0.0 | 0.0 | 0.00 | 0.00 | 0.00 | 63 | 1008.7 |
| 20260902141805 | 59 | 259 | 0.0 | 0.0 | 0.00 | 0.00 | 0.00 | 63 | 1008.8 |
| 20260902141306 | 59 | 259 | 0.0 | 1.0 | 0.00 | 0.00 | 0.00 | 63 | 1008.9 |
| 20260902140806 | 59 | 259 | 0.0 | 1.0 | 0.00 | 0.00 | 0.00 | 63 | 1008.6 |
| 20260902140305 | 58 | 259 | 0.0 | 0.0 | 0.00 | 0.00 | 0.00 | 63 | 1008.3 |
| 20260902135804 | 58 | 259 | 0.0 | 0.0 | 0.00 | 0.00 | 0.00 | 63 | 1008.4 |
| 20260902135306 | 58 | 259 | 0.0 | 0.0 | 0.00 | 0.00 | 0.00 | 64 | 1008.2 |
| 20260902134805 | 58 | 259 | 0.0 | 0.0 | 0.00 | 0.00 | 0.00 | 64 | 1008.2 |
| 20260902134305 | 57 | 259 | 0.0 | 0.0 | 0.00 | 0.00 | 0.00 | 65 | 1007.9 |
| 20260902133805 | 57 | 259 | 0.0 | 0.0 | 0.00 | 0.00 | 0.00 | 66 | 1008.1 |
| 20260902133306 | 57 | 259 | 0.0 | 0.0 | 0.00 | 0.00 | 0.00 | 65 | 1008.1 |
| 20260902132307 | 56 | 259 | 0.0 | 0.0 | 0.00 | 0.00 | 0.00 | 66 | 1008.2 |
| 20260902131805 | 56 | 259 | 0.0 | 0.0 | 0.00 | 0.00 | 0.00 | 68 | 1008.2 |
| 20260902131306 | 56 | 259 | 0.0 | 1.0 | 0.00 | 0.00 | 0.00 | 67 | 1008.0 |
| 20260902130805 | 55 | 259 | 0.0 | 0.0 | 0.00 | 0.00 | 0.00 | 68 | 1007.9 |
| 20260902130305 | 55 | 259 | 0.0 | 0.0 | 0.00 | 0.00 | 0.00 | 68 | 1007.6 |
| 20260902125805 | 55 | 259 | 0.0 | 0.0 | 0.00 | 0.00 | 0.00 | 68 | 1007.6 |
| 20260902125306 | 55 | 259 | 0.0 | 0.0 | 0.00 | 0.00 | 0.00 | 68 | 1007.6 |
| 20260902124805 | 56 | 259 | 0.0 | 0.0 | 0.00 | 0.00 | 0.00 | 68 | 1007.6 |
| 20260902124305 | 56 | 259 | 0.0 | 0.0 | 0.00 | 0.00 | 0.00 | 68 | 1007.2 |
| 20260902123805 | 56 | 259 | 0.0 | 1.0 | 0.00 | 0.00 | 0.00 | 67 | 1007.3 |
| 20260902123306 | 56 | 259 | 0.0 | 1.0 | 0.00 | 0.00 | 0.00 | 67 | 1007.6 |
| 20260902122804 | 55 | 258 | 0.0 | 0.0 | 0.00 | 0.00 | 0.00 | 68 | 1007.4 |
| 20260902122305 | 56 | 258 | 0.0 | 0.0 | 0.00 | 0.00 | 0.00 | 68 | 1007.6 |
| 20260902121805 | 56 | 258 | 0.0 | 0.0 | 0.00 | 0.00 | 0.00 | 67 | 1007.3 |
| 20260902121305 | 56 | 258 | 0.0 | 1.0 | 0.00 | 0.00 | 0.00 | 66 | 1007.5 |
| 20260902120805 | 56 | 259 | 0.0 | 1.0 | 0.00 | 0.00 | 0.00 | 67 | 1007.4 |
| 20260902115804 | 55 | 259 | 0.0 | 0.0 | 0.00 | 0.00 | 0.00 | 68 | 1007.5 |
| 20260902115308 | 56 | 259 | 0.0 | 0.0 | 0.00 | 0.00 | 0.00 | 68 | 1007.9 |
| 20260902113805 | 55 | 258 | 0.0 | 0.0 | 0.00 | 0.00 | 0.00 | 67 | 1007.5 |
| 20260902112306 | 57 | 258 | 0.0 | 1.0 | 0.00 | 0.00 | 0.00 | 65 | 1007.5 |
| 20260902111805 | 57 | 258 | 0.0 | 1.0 | 0.00 | 0.00 | 0.00 | 65 | 1007.9 |
| 20260902110805 | 57 | 258 | 0.0 | 1.0 | 0.00 | 0.00 | 0.00 | 64 | 1007.6 |
| 20260902110305 | 56 | 258 | 0.0 | 1.0 | 0.00 | 0.00 | 0.00 | 66 | 1007.7 |
| 20260902105805 | 55 | 258 | 0.0 | 0.0 | 0.00 | 0.00 | 0.00 | 67 | 1007.7 |
| 20260902105306 | 55 | 258 | 0.0 | 0.0 | 0.00 | 0.00 | 0.00 | 67 | 1007.5 |
| 20260902104805 | 55 | 258 | 0.0 | 0.0 | 0.00 | 0.00 | 0.00 | 66 | 1007.6 |
| 20260902104305 | 56 | 258 | 0.0 | 0.0 | 0.00 | 0.00 | 0.00 | 66 | 1007.5 |
| 20260902103805 | 56 | 258 | 0.0 | 0.0 | 0.00 | 0.00 | 0.00 | 64 | 1007.3 |
| 20260902103305 | 56 | 258 | 0.0 | 0.0 | 0.00 | 0.00 | 0.00 | 63 | 1007.4 |
| 20260902102805 | 57 | 258 | 0.0 | 0.0 | 0.00 | 0.00 | 0.00 | 62 | 1007.5 |
| 20260902102308 | 58 | 258 | 0.0 | 1.0 | 0.00 | 0.00 | 0.00 | 61 | 1007.3 |
| 20260902101304 | 58 | 259 | 1.0 | 2.0 | 0.00 | 0.00 | 0.00 | 59 | 1007.4 |
| 20260902100305 | 58 | 203 | 1.0 | 2.0 | 0.00 | 0.00 | 0.00 | 58 | 1007.4 |
| 20260902095804 | 57 | 203 | 1.0 | 1.0 | 0.00 | 0.00 | 0.00 | 59 | 1007.7 |
| 20260902095307 | 56 | 203 | 1.0 | 1.0 | 0.00 | 0.00 | 0.00 | 60 | 1007.8 |
| 20260902094805 | 56 | 203 | 0.0 | 0.0 | 0.00 | 0.00 | 0.00 | 61 | 1008.0 |
| 20260902094306 | 56 | 203 | 0.0 | 0.0 | 0.00 | 0.00 | 0.00 | 61 | 1007.9 |
| 20260902093805 | 57 | 203 | 0.0 | 0.0 | 0.00 | 0.00 | 0.00 | 59 | 1007.7 |
| 20260902093305 | 57 | 203 | 0.0 | 1.0 | 0.00 | 0.00 | 0.00 | 58 | 1007.8 |
| 20260902092805 | 58 | 203 | 0.0 | 1.0 | 0.00 | 0.00 | 0.00 | 57 | 1007.8 |
| 20260902092306 | 58 | 203 | 0.0 | 1.0 | 0.00 | 0.00 | 0.00 | 56 | 1007.7 |
| 20260902091805 | 58 | 203 | 1.0 | 1.0 | 0.00 | 0.00 | 0.00 | 56 | 1007.8 |
| 20260902090805 | 57 | 203 | 0.0 | 0.0 | 0.00 | 0.00 | 0.00 | 57 | 1007.7 |
| 20260902085306 | 57 | 203 | 0.0 | 0.0 | 0.00 | 0.00 | 0.00 | 57 | 1007.9 |
| 20260902084806 | 58 | 203 | 0.0 | 1.0 | 0.00 | 0.00 | 0.00 | 57 | 1007.6 |
| 20260902084305 | 58 | 203 | 0.0 | 0.0 | 0.00 | 0.00 | 0.00 | 56 | 1007.8 |
| 20260902083805 | 58 | 203 | 0.0 | 0.0 | 0.00 | 0.00 | 0.00 | 55 | 1007.7 |
| 20260902083305 | 59 | 203 | 0.0 | 0.0 | 0.00 | 0.00 | 0.00 | 54 | 1007.8 |
| 20260902082806 | 59 | 203 | 0.0 | 0.0 | 0.00 | 0.00 | 0.00 | 53 | 1007.6 |
| 20260902082309 | 59 | 203 | 0.0 | 0.0 | 0.00 | 0.00 | 0.00 | 53 | 1007.7 |
| 20260902081805 | 58 | 203 | 0.0 | 0.0 | 0.00 | 0.00 | 0.00 | 54 | 1007.8 |
| 20260902081305 | 59 | 203 | 0.0 | 0.0 | 0.00 | 0.00 | 0.00 | 53 | 1007.7 |
| 20260902080806 | 59 | 202 | 0.0 | 0.0 | 0.00 | 0.00 | 0.00 | 53 | 1007.7 |
| 20260902080305 | 59 | 203 | 0.0 | 0.0 | 0.00 | 0.00 | 0.00 | 52 | 1007.8 |
| 20260902075805 | 59 | 203 | 0.0 | 0.0 | 0.00 | 0.00 | 0.00 | 52 | 1007.7 |
| 20260902074806 | 60 | 203 | 0.0 | 0.0 | 0.00 | 0.00 | 0.00 | 51 | 1007.9 |
| 20260902074305 | 60 | 207 | 0.0 | 0.0 | 0.00 | 0.00 | 0.00 | 50 | 1007.8 |
| 20260902073805 | 60 | 207 | 0.0 | 1.0 | 0.00 | 0.00 | 0.00 | 50 | 1007.9 |
| 20260902072805 | 60 | 207 | 0.0 | 0.0 | 0.00 | 0.00 | 0.00 | 50 | 1008.1 |
| 20260902072309 | 60 | 207 | 0.0 | 0.0 | 0.00 | 0.00 | 0.00 | 50 | 1008.0 |
| 20260902071306 | 60 | 207 | 0.0 | 0.0 | 0.00 | 0.00 | 0.00 | 50 | 1008.3 |
| 20260902070805 | 60 | 207 | 0.0 | 0.0 | 0.00 | 0.00 | 0.00 | 50 | 1008.3 |
| 20260902070306 | 60 | 207 | 0.0 | 0.0 | 0.00 | 0.00 | 0.00 | 49 | 1008.2 |
| 20260902065307 | 60 | 207 | 0.0 | 0.0 | 0.00 | 0.00 | 0.00 | 49 | 1008.7 |
| 20260902064305 | 60 | 207 | 0.0 | 0.0 | 0.00 | 0.00 | 0.00 | 49 | 1008.6 |
| 20260902063805 | 60 | 207 | 0.0 | 0.0 | 0.00 | 0.00 | 0.00 | 50 | 1008.7 |
| 20260902063306 | 61 | 207 | 0.0 | 0.0 | 0.00 | 0.00 | 0.00 | 50 | 1008.5 |
| 20260902062805 | 61 | 207 | 0.0 | 0.0 | 0.00 | 0.00 | 0.00 | 49 | 1008.6 |
| 20260902062306 | 61 | 207 | 0.0 | 1.0 | 0.00 | 0.00 | 0.00 | 49 | 1008.5 |
| 20260902061805 | 61 | 207 | 0.0 | 1.0 | 0.00 | 0.00 | 0.00 | 50 | 1008.7 |
| 20260902061306 | 61 | 207 | 0.0 | 1.0 | 0.00 | 0.00 | 0.00 | 50 | 1008.7 |
| 20260902060817 | 60 | 207 | 0.0 | 0.0 | 0.00 | 0.00 | 0.00 | 50 | 1008.9 |
| 20260902060305 | 61 | 207 | 0.0 | 0.0 | 0.00 | 0.00 | 0.00 | 51 | 1008.9 |
| 20260902055805 | 60 | 207 | 0.0 | 0.0 | 0.00 | 0.00 | 0.00 | 52 | 1009.0 |
| 20260902054805 | 60 | 207 | 0.0 | 0.0 | 0.00 | 0.00 | 0.00 | 53 | 1009.2 |
| 20260902054305 | 60 | 207 | 0.0 | 0.0 | 0.00 | 0.00 | 0.00 | 53 | 1009.6 |
| 20260902053805 | 61 | 207 | 0.0 | 0.0 | 0.00 | 0.00 | 0.00 | 52 | 1009.4 |
| 20260902053305 | 62 | 207 | 0.0 | 0.0 | 0.00 | 0.00 | 0.00 | 51 | 1009.3 |
| 20260902052805 | 62 | 207 | 0.0 | 0.0 | 0.00 | 0.00 | 0.00 | 51 | 1009.4 |
| 20260902052306 | 62 | 207 | 0.0 | 0.0 | 0.00 | 0.00 | 0.00 | 50 | 1009.1 |
| 20260902051807 | 62 | 207 | 0.0 | 0.0 | 0.00 | 0.00 | 0.00 | 50 | 1009.3 |
| 20260902051304 | 62 | 207 | 0.0 | 1.0 | 0.00 | 0.00 | 0.00 | 49 | 1009.2 |
| 20260902050805 | 63 | 207 | 0.0 | 1.0 | 0.00 | 0.00 | 0.00 | 49 | 1009.2 |
| 20260902050305 | 63 | 207 | 0.0 | 2.0 | 0.00 | 0.00 | 0.00 | 49 | 1009.2 |
| 20260902045805 | 63 | 208 | 1.0 | 2.0 | 0.00 | 0.00 | 0.00 | 48 | 1009.2 |
| 20260902045306 | 64 | 184 | 0.0 | 1.0 | 0.00 | 0.00 | 0.00 | 47 | 1009.3 |
| 20260902044805 | 64 | 184 | 0.0 | 2.0 | 0.00 | 0.00 | 0.00 | 47 | 1009.4 |
| 20260902043805 | 64 | 249 | 0.0 | 1.0 | 0.00 | 0.00 | 0.00 | 46 | 1009.3 |
| 20260902043305 | 64 | 250 | 0.0 | 1.0 | 0.00 | 0.00 | 0.00 | 45 | 1009.3 |
| 20260902042804 | 64 | 250 | 0.0 | 1.0 | 0.00 | 0.00 | 0.00 | 45 | 1009.3 |
| 20260902042309 | 64 | 251 | 0.0 | 1.0 | 0.00 | 0.00 | 0.00 | 45 | 1009.3 |
| 20260902041804 | 64 | 251 | 0.0 | 1.0 | 0.00 | 0.00 | 0.00 | 45 | 1009.4 |
| 20260902041305 | 65 | 252 | 0.0 | 0.0 | 0.00 | 0.00 | 0.00 | 45 | 1009.3 |
| 20260902040805 | 65 | 252 | 0.0 | 1.0 | 0.00 | 0.00 | 0.00 | 44 | 1009.2 |
| 20260902040306 | 65 | 252 | 0.0 | 1.0 | 0.00 | 0.00 | 0.00 | 45 | 1009.3 |
| 20260902035804 | 65 | 293 | 0.0 | 1.0 | 0.00 | 0.00 | 0.00 | 45 | 1009.5 |
| 20260902035305 | 65 | 230 | 0.0 | 1.0 | 0.00 | 0.00 | 0.00 | 45 | 1009.7 |
| 20260902034805 | 65 | 146 | 0.0 | 1.0 | 0.00 | 0.00 | 0.00 | 45 | 1009.7 |
| 20260902034306 | 66 | 111 | 0.0 | 1.0 | 0.00 | 0.00 | 0.00 | 45 | 1009.8 |
| 20260902033805 | 66 | 111 | 0.0 | 0.0 | 0.00 | 0.00 | 0.00 | 44 | 1009.6 |
| 20260902033305 | 67 | 111 | 0.0 | 1.0 | 0.00 | 0.00 | 0.00 | 44 | 1009.9 |
| 20260902032805 | 67 | 103 | 0.0 | 1.0 | 0.00 | 0.00 | 0.00 | 44 | 1010.1 |
| 20260902032306 | 67 | 218 | 0.0 | 1.0 | 0.00 | 0.00 | 0.00 | 44 | 1010.3 |
| 20260902031805 | 67 | 120 | 0.0 | 1.0 | 0.00 | 0.00 | 0.00 | 44 | 1010.5 |
| 20260902030804 | 67 | 120 | 0.0 | 0.0 | 0.00 | 0.00 | 0.00 | 44 | 1010.5 |
| 20260902030306 | 68 | 119 | 0.0 | 1.0 | 0.00 | 0.00 | 0.00 | 43 | 1010.8 |
| 20260902025805 | 68 | 119 | 0.0 | 1.0 | 0.00 | 0.00 | 0.00 | 43 | 1010.7 |
| 20260902025306 | 68 | 118 | 0.0 | 1.0 | 0.00 | 0.00 | 0.00 | 43 | 1010.7 |
| 20260902024805 | 69 | 118 | 0.0 | 1.0 | 0.00 | 0.00 | 0.00 | 43 | 1010.7 |
| 20260902024306 | 69 | 118 | 0.0 | 1.0 | 0.00 | 0.00 | 0.00 | 43 | 1010.6 |
| 20260902023805 | 69 | 118 | 0.0 | 1.0 | 0.00 | 0.00 | 0.00 | 42 | 1010.7 |
| 20260902022306 | 71 | 111 | 0.0 | 1.0 | 0.00 | 0.00 | 0.00 | 41 | 1010.9 |
| 20260902021805 | 71 | 111 | 0.0 | 0.0 | 0.00 | 0.00 | 0.00 | 40 | 1011.0 |
| 20260902020305 | 73 | 107 | 0.0 | 1.0 | 0.00 | 0.00 | 0.00 | 38 | 1010.7 |
| 20260902015306 | 74 | 111 | 0.0 | 0.0 | 0.00 | 0.00 | 0.00 | 36 | 1010.7 |
| 20260902014805 | 75 | 111 | 0.0 | 1.0 | 0.00 | 0.00 | 0.00 | 35 | 1010.7 |
| 20260902014304 | 76 | 109 | 0.0 | 1.0 | 0.00 | 0.00 | 0.00 | 34 | 1010.6 |
| 20260902013804 | 76 | 141 | 0.0 | 2.0 | 0.00 | 0.00 | 0.00 | 33 | 1010.4 |
| 20260902013305 | 76 | 199 | 0.0 | 0.0 | 0.00 | 0.00 | 0.00 | 34 | 1010.5 |
| 20260902012806 | 76 | 199 | 0.0 | 1.0 | 0.00 | 0.00 | 0.00 | 33 | 1010.5 |
| 20260902012309 | 76 | 199 | 0.0 | 3.0 | 0.00 | 0.00 | 0.00 | 33 | 1010.6 |
| 20260902011805 | 76 | 212 | 0.0 | 3.0 | 0.00 | 0.00 | 0.00 | 32 | 1010.6 |
| 20260902011304 | 77 | 206 | 0.0 | 3.0 | 0.00 | 0.00 | 0.00 | 31 | 1010.8 |
| 20260902010806 | 77 | 155 | 1.0 | 3.0 | 0.00 | 0.00 | 0.00 | 30 | 1010.5 |
| 20260902010305 | 78 | 181 | 1.0 | 5.0 | 0.00 | 0.00 | 0.00 | 30 | 1010.5 |
| 20260902005805 | 78 | 170 | 2.0 | 6.0 | 0.00 | 0.00 | 0.00 | 29 | 1010.5 |
| 20260902004305 | 79 | 174 | 1.0 | 2.0 | 0.00 | 0.00 | 0.00 | 28 | 1010.7 |
| 20260902003304 | 79 | 171 | 4.0 | 7.0 | 0.00 | 0.00 | 0.00 | 27 | 1010.7 |
| 20260902002805 | 79 | 283 | 2.0 | 7.0 | 0.00 | 0.00 | 0.00 | 27 | 1010.5 |
| 20260902002306 | 80 | 193 | 2.0 | 7.0 | 0.00 | 0.00 | 0.00 | 28 | 1010.5 |
| 20260902001805 | 80 | 45 | 1.0 | 3.0 | 0.00 | 0.00 | 0.00 | 28 | 1010.6 |
| 20260902001305 | 80 | 152 | 1.0 | 3.0 | 0.00 | 0.00 | 0.00 | 28 | 1010.4 |
| 20260902000806 | 80 | 205 | 2.0 | 6.0 | 0.00 | 0.00 | 0.00 | 27 | 1010.6 |
| 20260902000305 | 80 | 39 | 1.0 | 5.0 | 0.00 | 0.00 | 0.00 | 27 | 1010.6 |
| 20260901235805 | 79 | 193 | 1.0 | 5.0 | 0.00 | 0.00 | 0.00 | 27 | 1010.7 |
| 20260901234806 | 79 | 213 | 1.0 | 6.0 | 0.00 | 0.00 | 0.00 | 28 | 1010.9 |
| 20260901233805 | 81 | 113 | 1.0 | 2.0 | 0.00 | 0.00 | 0.00 | 26 | 1010.6 |
| 20260901233305 | 80 | 198 | 1.0 | 3.0 | 0.00 | 0.00 | 0.00 | 27 | 1010.7 |
| 20260901232806 | 79 | 186 | 1.0 | 3.0 | 0.00 | 0.00 | 0.00 | 27 | 1011.0 |
| 20260901232306 | 79 | 178 | 2.0 | 6.0 | 0.00 | 0.00 | 0.00 | 27 | 1010.7 |
| 20260901231804 | 79 | 199 | 2.0 | 5.0 | 0.00 | 0.00 | 0.00 | 26 | 1010.8 |
| 20260901231304 | 78 | 191 | 1.0 | 3.0 | 0.00 | 0.00 | 0.00 | 26 | 1010.7 |
| 20260901230806 | 79 | 158 | 1.0 | 5.0 | 0.00 | 0.00 | 0.00 | 26 | 1011.0 |
| 20260901230305 | 80 | 176 | 2.0 | 3.0 | 0.00 | 0.00 | 0.00 | 26 | 1010.8 |
| 20260901225804 | 81 | 140 | 1.0 | 6.0 | 0.00 | 0.00 | 0.00 | 25 | 1010.7 |
| 20260901225306 | 81 | 177 | 2.0 | 5.0 | 0.00 | 0.00 | 0.00 | 25 | 1010.6 |
| 20260901224804 | 81 | 113 | 1.0 | 7.0 | 0.00 | 0.00 | 0.00 | 25 | 1010.7 |
| 20260901224305 | 81 | 176 | 2.0 | 5.0 | 0.00 | 0.00 | 0.00 | 26 | 1010.7 |
| 20260901223805 | 80 | 117 | 1.0 | 8.0 | 0.00 | 0.00 | 0.00 | 26 | 1010.8 |
| 20260901223305 | 80 | 168 | 3.0 | 7.0 | 0.00 | 0.00 | 0.00 | 26 | 1010.9 |
| 20260901222805 | 80 | 197 | 2.0 | 6.0 | 0.00 | 0.00 | 0.00 | 27 | 1011.0 |
| 20260901222306 | 80 | 190 | 1.0 | 3.0 | 0.00 | 0.00 | 0.00 | 28 | 1011.4 |
| 20260901221306 | 80 | 199 | 2.0 | 6.0 | 0.00 | 0.00 | 0.00 | 29 | 1011.0 |
| 20260901220805 | 80 | 205 | 3.0 | 7.0 | 0.00 | 0.00 | 0.00 | 28 | 1011.4 |
| 20260901220305 | 79 | 217 | 1.0 | 5.0 | 0.00 | 0.00 | 0.00 | 27 | 1011.4 |
| 20260901215805 | 79 | 184 | 3.0 | 7.0 | 0.00 | 0.00 | 0.00 | 27 | 1011.4 |
| 20260901215306 | 79 | 181 | 1.0 | 6.0 | 0.00 | 0.00 | 0.00 | 27 | 1011.3 |
| 20260901214806 | 80 | 173 | 3.0 | 7.0 | 0.00 | 0.00 | 0.00 | 27 | 1011.2 |
| 20260901214304 | 80 | 232 | 1.0 | 5.0 | 0.00 | 0.00 | 0.00 | 27 | 1011.3 |
| 20260901213805 | 79 | 325 | 1.0 | 5.0 | 0.00 | 0.00 | 0.00 | 29 | 1011.5 |
| 20260901212805 | 79 | 226 | 3.0 | 7.0 | 0.00 | 0.00 | 0.00 | 27 | 1011.6 |
| 20260901212306 | 78 | 179 | 2.0 | 6.0 | 0.00 | 0.00 | 0.00 | 28 | 1011.7 |
| 20260901211806 | 79 | 179 | 3.0 | 7.0 | 0.00 | 0.00 | 0.00 | 27 | 1011.4 |
| 20260901211305 | 79 | 181 | 3.0 | 7.0 | 0.00 | 0.00 | 0.00 | 27 | 1011.7 |
| 20260901210304 | 79 | 194 | 2.0 | 7.0 | 0.00 | 0.00 | 0.00 | 28 | 1011.6 |
| 20260901205806 | 79 | 187 | 3.0 | 7.0 | 0.00 | 0.00 | 0.00 | 28 | 1011.6 |
| 20260901205306 | 79 | 210 | 5.0 | 8.0 | 0.00 | 0.00 | 0.00 | 28 | 1011.7 |
| 20260901204805 | 79 | 181 | 4.0 | 8.0 | 0.00 | 0.00 | 0.00 | 29 | 1012.1 |
| 20260901204305 | 79 | 198 | 2.0 | 8.0 | 0.00 | 0.00 | 0.00 | 29 | 1011.9 |
| 20260901203806 | 79 | 202 | 1.0 | 7.0 | 0.00 | 0.00 | 0.00 | 30 | 1012.0 |
| 20260901203305 | 79 | 185 | 2.0 | 6.0 | 0.00 | 0.00 | 0.00 | 30 | 1012.0 |
| 20260901202805 | 78 | 282 | 1.0 | 7.0 | 0.00 | 0.00 | 0.00 | 32 | 1012.1 |
| 20260901202306 | 78 | 152 | 1.0 | 5.0 | 0.00 | 0.00 | 0.00 | 33 | 1012.1 |
| 20260901201805 | 78 | 195 | 3.0 | 6.0 | 0.00 | 0.00 | 0.00 | 32 | 1012.2 |
| 20260901201304 | 79 | 214 | 3.0 | 7.0 | 0.00 | 0.00 | 0.00 | 31 | 1011.9 |
| 20260901200804 | 79 | 123 | 1.0 | 5.0 | 0.00 | 0.00 | 0.00 | 30 | 1012.2 |
| 20260901195806 | 78 | 159 | 2.0 | 7.0 | 0.00 | 0.00 | 0.00 | 29 | 1012.3 |
| 20260901195306 | 78 | 225 | 3.0 | 7.0 | 0.00 | 0.00 | 0.00 | 30 | 1012.4 |
| 20260901194804 | 78 | 210 | 3.0 | 7.0 | 0.00 | 0.00 | 0.00 | 29 | 1012.4 |
| 20260901194305 | 77 | 1 | 1.0 | 5.0 | 0.00 | 0.00 | 0.00 | 32 | 1012.5 |
| 20260901193304 | 78 | 215 | 2.0 | 6.0 | 0.00 | 0.00 | 0.00 | 31 | 1012.6 |
| 20260901192805 | 78 | 211 | 2.0 | 6.0 | 0.00 | 0.00 | 0.00 | 31 | 1012.5 |
| 20260901192306 | 79 | 197 | 1.0 | 5.0 | 0.00 | 0.00 | 0.00 | 30 | 1012.5 |
| 20260901191805 | 78 | 160 | 1.0 | 5.0 | 0.00 | 0.00 | 0.00 | 32 | 1012.7 |